Flag for Central African Republic Weather past 2 weeks in Berbérati, Central African Republic

Now
75 °F

Thunderstorms. Partly sunny.


Feels Like: 74 °F
Forecast: 71 / 80 °F
Wind: 7 mph from South

Location: Bangui Airport

Current Time: Mar 27, 2015 at 6:45:18 AM

Latest Report: Mar 27, 2015 at 6:00 AM


Visibility: N/A

Pressure: 29.92 "Hg

Humidity: 94%

Dew point: 73 °F

Location of BerbératiLocation

Historic Weather in Berbérati — Graph

°F

Berbérati temperature yesterday

Maximum temperature yesterday: 100 °F (at 1:00 PM)
Minimum temperature yesterday: 77 °F (at 8:00 PM)
Average temperature yesterday: 84 °F

Past Weeks' High & Low Weather Summary

 TemperatureHumidityPressure
High100 °F (Mar 16, 2:00 PM)100% (Mar 12, 5:00 AM)29.92 "Hg (Mar 12, 5:00 AM)
Low72 °F (Mar 12, 5:00 AM)35% (Mar 16, 2:00 PM)29.65 "Hg (Mar 15, 4:00 PM)
Average84 °F74%29.78 "Hg
* Reported Mar 12 5:00 AM — Mar 27 5:00 AM, Berbérati, Weather by CustomWeather, © 2015

Note: Actual official high and low records may vary slightly from our data, if they occured in-between our weather recording intervals... More about our weather records

Advertising

Berbérati weather history for previous 24 hours

 ConditionsComfort  
Time TempWeatherWind HumidityBarometerVisibility
5:00 AM
Fri, Mar 27
77 °FThunderstorms. Passing clouds.7 mph89%29.86 "HgN/A
4:00 AM77 °FThunderstorms. Passing clouds.5 mph89%29.83 "HgN/A
3:00 AM75 °FPassing clouds.3 mph94%29.83 "HgN/A
2:00 AM75 °FPassing clouds.2 mph94%29.80 "HgN/A
1:00 AM77 °FPassing clouds.5 mph89%29.83 "HgN/A
12:00 AM75 °FPassing clouds.3 mph94%29.83 "HgN/A
11:00 PM
Thu, Mar 26
77 °FPassing clouds.3 mph89%29.86 "HgN/A
10:00 PM77 °FThunderstorms. Passing clouds.3 mph89%29.83 "HgN/A
9:00 PM77 °FThunderstorms. Passing clouds.1 mph83%29.83 "HgN/A
8:00 PM77 °FThunderstorms. Passing clouds.1 mph83%29.80 "HgN/A
7:00 PM81 °FThunderstorms. Passing clouds.8 mph74%29.80 "HgN/A
6:00 PM81 °FPassing clouds.1 mph74%29.74 "HgN/A
5:00 PM81 °FThunderstorms. Broken clouds.15 mph70%29.71 "HgN/A
4:00 PM86 °FThunderstorms. Broken clouds.1 mph62%29.71 "HgN/A
3:00 PM86 °FThunderstorms. Broken clouds.1 mph62%29.68 "HgN/A
2:00 PM93 °FThunderstorms. Scattered clouds.15 mph49%29.71 "Hg4 mi
1:00 PM100 °FScattered clouds.3 mph40%29.77 "HgN/A
12:00 PM97 °FScattered clouds.8 mph44%29.83 "HgN/A
11:00 AM95 °FPassing clouds.7 mph50%29.86 "HgN/A
10:00 AM93 °FPassing clouds.5 mph53%29.86 "HgN/A
9:00 AM86 °FSunny.2 mph70%29.89 "Hg10 mi
8:00 AM82 °FPartly sunny.2 mph79%29.86 "Hg5 mi
7:00 AM82 °FPartly sunny.1 mph79%29.86 "Hg5 mi
6:00 AM79 °FPartly sunny.No wind89%29.83 "Hg5 mi
Weather by CustomWeather, © 2015

See weather overviewHow to use our weather pages